Regional Weather Roundup
Issued by NWS

Home | Current Version | Previous Version | Graphics & Text | Print | Product List | Glossary On
Versions: 1 2 3 4 5 6 7 8 9 10 11 12 13 14 15 16 17 18 19 20 21 22 23 24 25 26 27 28 29 30 31 32 33 34 35 36 37 38 39 40 41 42 43 44 45 46 47 48 49 50
000
ASUS43 KIND 290809
RWRIN

WEATHER ROUNDUP FOR INDIANA
NATIONAL WEATHER SERVICE INDIANAPOLIS IN
400 AM EDT SAT AUG 29 2015

NOTE: "FAIR" INDICATES FEW OR NO CLOUDS BELOW 12,000 FEET WITH NO
SIGNIFICANT WEATHER AND/OR OBSTRUCTIONS TO VISIBILITY.

* - STATION DOES NOT REPORT WEATHER SUCH AS PRECIPITATION OR FOG.

+ - STATION NOT QUALITY CONTROLLED BY THE NATIONAL WEATHER SERVICE.
    USE DATA WITH CAUTION...ESPECIALLY DEWPOINT AND RELATIVE
    HUMIDITY OBSERVATIONS.

INZ001>003-010>013-019-020-290900-
NORTHWEST INDIANA

CITY           SKY/WX    TMP DP  RH WIND       PRES   REMARKS
GARY /AIRPORT/ MOCLDY    65  59  80 SE3       30.07F
KNOX *+        MOCLDY    59  57  94 CALM      30.08S
LA PORTE +     MOCLDY    64  64 100 CALM      30.09F
MICHIGAN CITY+ CLOUDY    61  61 100 CALM      30.09S
MONTICELLO +   CLOUDY    65  60  84 SE3       30.07S
RENSSELAER +   CLOUDY    63  61  94 SE3       30.07F
VALPARAISO     FAIR      61  58  90 NE5       30.08F

$$

LMZ046-743>745-290900-
SOUTHERN LAKE MICHIGAN

STATION/POSITION TIME  TEMP    WIND        PRES    WAVE
                       AIR SEA DIR/SP/G            HT
                 (UTC) (F)     (DEG/KT/KT) (MB)    (FT)
BURNS HARBOR     0700   70     160/  9/ 14 1019.0S
MICHIGAN CITY    0700   67     120/  5/  6   N/A
5NW MICH CITY    0800   68 71  160/ 10/ 12   N/A     1

$$

INZ004-005-014>016-021>024-290900-
NORTH CENTRAL INDIANA

CITY           SKY/WX    TMP DP  RH WIND       PRES   REMARKS
GOSHEN         MOCLDY    64  58  80 SE6       30.10F
LOGANSPORT +   CLOUDY    59  55  88 SE3       30.09S
PERU/GRISSOM   CLOUDY    62  58  88 SE5       30.08F
ROCHESTER +    CLOUDY    63  61  94 E3        30.10S
SOUTH BEND     MOCLDY    66  57  72 SE6       30.10S
WARSAW +       MOCLDY    61  57  88 CALM      30.10F

$$

INZ006>009-017-018-025>027-290900-
NORTHEAST INDIANA

CITY           SKY/WX    TMP DP  RH WIND       PRES   REMARKS
ANGOLA *+      CLEAR     64  54  68 CALM      30.12F
AUBURN +       CLOUDY    61  55  82 CALM      30.12S
FORT WAYNE     CLOUDY    63  58  83 CALM      30.11F
HUNTINGTON +   CLOUDY    62  56  80 CALM      30.10S

$$

INZ028-029-035-036-043>045-051>053-290900-
WEST CENTRAL INDIANA

CITY           SKY/WX    TMP DP  RH WIND       PRES   REMARKS
CRAWFORDSVL +  MOCLDY    61  57  88 SE3       30.08S
GREENCASTLE +  MOCLDY    61  54  77 CALM      30.09S
LAFAYETTE      CLOUDY    65  58  78 CALM      30.07S
TERRE HAUTE    CLOUDY    64  60  87 CALM      30.07S

$$

INZ030>032-037>040-046>048-054>057-064-065-290900-
CENTRAL INDIANA

CITY           SKY/WX    TMP DP  RH WIND       PRES   REMARKS
FISHERS *+     CLOUDY    63  61  94 SE3       30.10
FRANKFORT +    MOCLDY   N/A N/A N/A CALM      30.10F
GREENWOOD *+   CLOUDY    66  55  68 SE5       30.10S
INDIANAPOLIS   CLOUDY    66  58  75 SE7       30.07F
-EAGLE CREEK   MOCLDY    66  59  78 SE3       30.09S
KOKOMO *+      CLOUDY    63  57  82 SE3       30.09F
MARION +       CLOUDY    61  52  71 SE3       30.11S
MT COMFORT *+  CLOUDY    63  59  88 SE3       30.10S
SHELBYVILLE    CLOUDY    64  59  83 CALM      30.09S
ZIONSVILLE +   CLOUDY    62  58  84 CALM      30.10F

$$

INZ033-034-041-042-049-050-058-059-290900-
EAST CENTRAL INDIANA

CITY           SKY/WX    TMP DP  RH WIND       PRES   REMARKS
MUNCIE         MOCLDY    63  58  83 S5        30.11S

$$

INZ060-061-067>069-081>083-085>088-290900-
SOUTHWEST INDIANA

CITY           SKY/WX    TMP DP  RH WIND       PRES   REMARKS
EVANSVILLE     CLOUDY    68  65  90 CALM      30.05S
HUNTINGBURG *+ CLOUDY    70  63  78 SE3       30.06S
WASHINGTON +   CLOUDY    65  61  87 SE3       30.05S

$$

INZ062-063-066-070>080-084-089>092-290900-
SOUTH CENTRAL AND SOUTHEAST INDIANA

CITY           SKY/WX    TMP DP  RH WIND       PRES   REMARKS
BLOOMINGTON    CLOUDY    63  61  93 CALM      30.08F
MADISON *+     PTCLDY    66  61  82 E5        30.11S
NORTH VERNON + MOCLDY    68  61  77 CALM      30.10S
SEYMOUR +      CLOUDY    61  59  94 CALM      30.08S

$$




USA.gov is the U.S. government's official web portal to all federal, state and local government web resources and services.